Overview Statistics Trail Chart Weather Telemetry Raw packets
 

This is the latest recevied weather packets stored in our database for station/object IU1OLT-6. If no packets are shown the sender has not sent any weather packets the latest 10 day(s).

<< 27 28 29 30 31 32 33 >>
Time Temp. Humidity Pressure Rain* Wind** Luminosity Snow
1788019335 15.56° C 44% 1010.9 hPa 0 mm - - -
1788018375 15° C 69% 1011.1 hPa 0 mm - - -
1788017415 14.44° C 69% 1011.3 hPa 0 mm - - -
1788016455 14.44° C 78% 1011.3 hPa 0 mm - - -
1788015543 14.44° C 76% 1011.5 hPa 0 mm - - -
1788014631 15° C 78% 1011.3 hPa 0 mm - - -
1788013719 15.56° C 74% 1011.5 hPa 0 mm - - -
1788012711 14.44° C 70% 1011.6 hPa 0 mm - - -
1788011751 14.44° C 78% 1011.6 hPa 0 mm - - -
1788010839 14.44° C 88% 1011.9 hPa 0 mm - - -
1788009831 14.44° C 88% 1011.9 hPa 0 mm - - -
1788008871 15° C 80% 1011.5 hPa 0 mm - - -
1788007911 15° C 71% 1011.5 hPa 0 mm - - -
1788006951 15° C 77% 1011.5 hPa 0 mm - - -
1788005992 15° C 65% 1012 hPa 0 mm - - -
1788005032 14.44° C 89% 1011.7 hPa 0 mm - - -
1788004119 14.44° C 90% 1012.2 hPa 0 mm - - -
1788003016 14.44° C 95% 1011.8 hPa 0 mm - - -
1788002055 14.44° C 93% 1011.7 hPa 0 mm - - -
1788001095 14.44° C 93% 1012 hPa 0 mm - - -
1788000183 14.44° C 87% 1012.1 hPa 0 mm - - -
1787999318 14.44° C 86% 1011.9 hPa 0 mm - - -
1787999272 14.44° C 86% 1011.9 hPa 0 mm - - -
1787998312 14.44° C 90% 1011.8 hPa 0 mm - - -
1787997256 13.89° C 90% 1012.1 hPa 0 mm - - -

* Rain latest hour (hover to see other rain measurements)
** Current wind speed in m/s (hover to see current wind gust speed)